EW2785 Weather Reports


time (UTC)temp
C
wind
direction
speed
KPH
gust
KPH
rain 1hr
cm
rain 24hr
cm
rain mn
cm
humidity
%
barometer
mb
20260904003058 21 205 0.0 1.6 0.00 0.00 0.00 83 1011.0
20260904001556 22 205 0.0 0.0 0.00 0.00 0.00 82 1010.7
20260904000114 22 205 0.0 1.6 0.00 0.00 0.00 81 1010.3
20260903234556 23 205 0.0 0.0 0.00 0.00 0.00 78 1010.2
20260903233057 23 205 0.0 0.0 0.00 0.00 0.00 77 1009.9
20260903231556 23 205 0.0 3.2 0.00 0.00 0.00 76 1010.0
20260903230055 24 207 1.6 4.8 0.00 0.00 0.00 75 1010.1
20260903224611 25 210 0.0 1.6 0.00 0.00 0.00 75 1010.2
20260903223051 25 210 0.0 9.7 0.00 0.00 0.00 74 1010.3
20260903221552 25 196 0.0 6.4 0.00 0.00 0.00 74 1010.2
20260903220050 25 223 3.2 9.7 0.00 0.00 0.00 74 1010.1
20260903214607 25 211 4.8 12.9 0.00 0.00 0.00 71 1010.2
20260903213059 26 217 3.2 9.7 0.00 0.00 0.00 71 1010.5
20260903211549 26 217 3.2 8.0 0.00 0.00 0.00 70 1010.6
20260903210121 26 219 0.0 8.0 0.00 0.00 0.00 71 1010.2
20260903204550 26 210 0.0 3.2 0.00 0.00 0.00 74 1010.1
20260903203105 26 208 0.0 9.7 0.00 0.00 0.00 71 1010.2
20260903201548 26 217 6.4 14.5 0.00 0.00 0.00 69 1010.1
20260903200052 26 330 0.0 4.8 0.00 0.00 0.00 74 1010.2
20260903194541 26 212 3.2 12.9 0.00 0.00 0.00 72 1010.4
20260903193039 25 198 0.0 9.7 0.00 0.00 0.00 75 1010.7
20260903191540 25 205 1.6 8.0 0.00 0.00 0.00 75 1010.6
20260903190035 25 221 0.0 4.8 0.00 0.00 0.00 78 1010.5
20260903184531 24 202 1.6 6.4 0.00 0.00 0.00 81 1010.7
20260903183029 23 223 0.0 4.8 0.00 0.00 0.00 81 1010.9
20260903181528 23 217 0.0 8.0 0.00 0.00 0.00 81 1011.1
20260903180026 23 215 0.0 4.8 0.00 0.00 0.00 82 1011.3
20260903174522 23 153 0.0 4.8 0.00 0.00 0.00 81 1011.5
20260903173021 23 153 0.0 4.8 0.00 0.00 0.00 82 1011.6
20260903171519 23 197 1.6 4.8 0.00 0.00 0.00 82 1011.6
20260903170017 22 147 0.0 6.4 0.00 0.00 0.00 82 1011.8
20260903164515 22 211 0.0 8.0 0.00 0.00 0.00 85 1011.8
20260903163012 22 209 0.0 6.4 0.00 0.00 0.00 84 1012.1
20260903161512 22 211 0.0 9.7 0.00 0.00 0.00 84 1012.3
20260903160012 22 219 0.0 9.7 0.00 0.00 0.00 85 1012.3
20260903154507 22 202 0.0 9.7 0.00 0.00 0.00 85 1012.4
20260903153008 21 196 1.6 4.8 0.00 0.00 0.00 86 1012.5
20260903151504 21 209 1.6 6.4 0.00 0.00 0.00 87 1012.8
20260903150105 21 201 1.6 8.0 0.00 0.00 0.00 88 1012.6
20260903144604 20 217 1.6 8.0 0.00 0.00 0.00 88 1012.8
20260903143107 20 211 0.0 1.6 0.00 0.00 0.00 89 1012.8
20260903141602 19 260 0.0 1.6 0.00 0.00 0.00 89 1013.0
20260903140049 19 260 0.0 1.6 0.00 0.00 0.00 90 1013.1
20260903134552 18 260 0.0 0.0 0.00 0.00 0.00 90 1013.1
20260903133046 18 260 0.0 0.0 0.00 0.00 0.00 90 1013.0
20260903131547 18 260 0.0 1.6 0.00 0.00 0.00 90 1013.1
20260903130044 18 260 0.0 0.0 0.00 0.00 0.00 89 1013.1
20260903124545 17 260 0.0 0.0 0.00 0.00 0.00 90 1013.1
20260903123043 17 260 0.0 0.0 0.00 0.00 0.00 90 1013.1
20260903121542 17 198 0.0 0.0 0.00 0.00 0.00 89 1013.2
20260903120044 17 198 0.0 0.0 0.00 0.00 0.00 89 1013.4
20260903114545 17 198 0.0 0.0 0.00 0.00 0.00 90 1013.3
20260903113041 17 198 0.0 0.0 0.00 0.00 0.00 90 1013.3
20260903111543 17 198 0.0 1.6 0.00 0.00 0.00 89 1013.4
20260903110046 17 198 0.0 0.0 0.00 0.00 0.00 89 1013.4
20260903104543 17 198 0.0 0.0 0.00 0.00 0.00 89 1013.4
20260903103046 17 198 0.0 0.0 0.00 0.00 0.00 89 1013.3
20260903101541 17 198 0.0 1.6 0.00 0.00 0.00 89 1013.2
20260903100038 17 198 0.0 0.0 0.00 0.00 0.00 89 1013.1
20260903094537 17 198 0.0 0.0 0.00 0.00 0.00 89 1013.1
20260903093038 17 198 0.0 0.0 0.00 0.00 0.00 89 1013.0
20260903091534 17 198 0.0 3.2 0.00 0.00 0.00 89 1013.2
20260903090034 17 134 0.0 0.0 0.00 0.00 0.00 89 1013.2
20260903084532 17 134 0.0 0.0 0.00 0.00 0.00 88 1013.3
20260903083036 17 134 0.0 0.0 0.00 0.00 0.00 88 1013.3
20260903081533 17 134 0.0 0.0 0.00 0.00 0.00 88 1013.5
20260903080029 17 134 0.0 0.0 0.00 0.00 0.00 88 1013.8
20260903074528 17 134 0.0 0.0 0.00 0.00 0.00 87 1013.7
20260903073026 17 134 0.0 0.0 0.00 0.00 0.00 87 1013.5
20260903071525 17 134 0.0 1.6 0.00 0.00 0.00 86 1013.7
20260903070023 17 134 0.0 0.0 0.00 0.00 0.00 86 1014.0
20260903064521 17 134 0.0 0.0 0.00 0.00 0.00 85 1013.8
20260903063040 18 134 0.0 0.0 0.00 0.00 0.00 84 1014.0
20260903061520 18 134 0.0 1.6 0.00 0.00 0.00 83 1013.9
20260903060016 18 134 0.0 1.6 0.00 0.00 0.00 83 1014.0
20260903054516 18 134 0.0 6.4 0.00 0.00 0.00 81 1014.2
20260903053011 18 134 1.6 4.8 0.00 0.00 0.00 80 1014.7
20260903051510 18 133 1.6 4.8 0.00 0.00 0.00 78 1014.7
20260903050007 19 140 1.6 8.0 0.00 0.00 0.00 76 1014.7
20260903044506 19 134 0.0 4.8 0.00 0.00 0.00 76 1014.4
20260903043005 19 133 1.6 6.4 0.00 0.00 0.00 76 1014.7
20260903041506 19 136 0.0 6.4 0.00 0.00 0.00 75 1014.5
20260903040003 19 117 0.0 4.8 0.00 0.00 0.00 75 1014.6
20260903034502 19 138 0.0 6.4 0.00 0.00 0.00 75 1014.5
20260903033001 19 123 3.2 9.7 0.00 0.00 0.00 76 1014.5
20260903031559 19 128 3.2 6.4 0.00 0.00 0.00 76 1015.1
20260903030057 19 134 1.6 6.4 0.00 0.00 0.00 77 1015.5
20260903024557 19 121 1.6 6.4 0.00 0.00 0.00 78 1015.5
20260903023055 19 133 1.6 4.8 0.00 0.00 0.00 78 1016.0
20260903021555 19 130 1.6 8.0 0.00 0.00 0.00 78 1016.2
20260903020054 19 148 0.0 3.2 0.00 0.00 0.00 78 1016.2
20260903014554 20 140 0.0 3.2 0.00 0.00 0.00 77 1016.5
20260903013054 20 130 3.2 8.0 0.00 0.00 0.00 77 1016.7
20260903011604 20 141 4.8 11.3 0.00 0.00 0.00 76 1016.6
20260903010052 20 138 0.0 9.7 0.00 0.00 0.00 76 1016.5
20260903004551 20 138 4.8 11.3 0.00 0.00 0.00 77 1016.4